Weather History for Stevensville, MD

Change the Weather History Date:

Thursday, February 28, 2013

  Actual Average (KESN) Record (KESN)
Temperature  
Mean Temperature 42 °F -  
Max Temperature 46 °F 55 °F 70 °F (1954)
Min Temperature 39 °F 33 °F 10 °F (1950)
Degree Days  
Heating Degree Days 22    
Moisture  
Dew Point 32 °F    
Average Humidity 65    
Maximum Humidity 87    
Minimum Humidity 40    
Precipitation  
Precipitation 0.00 in - - ()
Sea Level Pressure  
Sea Level Pressure 29.67 in    
Wind  
Wind Speed 6 mph (WNW)    
Max Wind Speed 17 mph    
Max Gust Speed 23 mph    
Visibility 10 miles    
Events      
Averages and records for this station are not official NWS values.
T = Trace of Precipitation, MM = Missing Value Source: NWS Daily Summary

Daily Weather History Graph

Daily Weather History Graph

Search for Another Location

Airport:

Trip Planner

Search our weather history database for the weather conditions in past years. The results will help you decide how hot, cold, wet, or windy it might be!

Date:

Astronomy

Feb. 28, 2013 Rise Set
Actual Time 6:38 AM EST 5:57 PM EST
Civil Twilight 6:12 AM EST 6:24 PM EST
Nautical Twilight 5:41 AM EST 6:54 PM EST
Astronomical Twilight 5:10 AM EST 7:25 PM EST
Moon 9:19 PM EST (2/28) 7:49 AM EST (2/28)
Length of Visible Light 12h 11m
Length of Day
11h 18m
Waning Gibbous, 91% of the Moon is Illuminated
Feb 28
Waning Gibbous
Mar 4
Last Quarter
Mar 11
New
Mar 19
First Quarter
Mar 27
Full

Hourly Weather History & Observations

Time (EST) Temp. Windchill Dew Point Humidity Pressure Visibility Wind Dir Wind Speed Gust Speed Precip Events Conditions
12:07 AM 42.8 °F - 33.8 °F 70% 29.66 in 10.0 mi Calm Calm - N/A   Clear
12:27 AM 42.8 °F - 33.8 °F 70% 29.66 in 10.0 mi Calm Calm - N/A   Mostly Cloudy
1:07 AM 42.8 °F - 37.4 °F 81% 29.65 in 10.0 mi Calm Calm - N/A   Scattered Clouds
1:27 AM 42.8 °F 40.1 °F 35.6 °F 76% 29.66 in 10.0 mi South 4.6 mph - N/A   Scattered Clouds
1:47 AM 44.6 °F 42.2 °F 33.8 °F 66% 29.65 in 10.0 mi South 4.6 mph - N/A   Scattered Clouds
2:07 AM 46.4 °F 43.5 °F 33.8 °F 62% 29.65 in 10.0 mi South 5.8 mph - N/A   Scattered Clouds
2:27 AM 44.6 °F - 33.8 °F 66% 29.64 in 10.0 mi Calm Calm - N/A   Clear
2:47 AM 44.6 °F - 33.8 °F 66% 29.63 in 10.0 mi Calm Calm - N/A   Scattered Clouds
3:07 AM 44.6 °F 43.1 °F 35.6 °F 71% 29.64 in 10.0 mi West 3.5 mph - N/A   Overcast
3:27 AM 42.8 °F 40.1 °F 35.6 °F 76% 29.64 in 10.0 mi West 4.6 mph - N/A   Overcast
3:47 AM 44.6 °F 43.1 °F 33.8 °F 66% 29.64 in 10.0 mi NW 3.5 mph - N/A   Overcast
4:07 AM 42.8 °F 37.0 °F 35.6 °F 76% 29.64 in 10.0 mi WNW 10.4 mph - N/A   Overcast
4:27 AM 42.8 °F 38.0 °F 35.6 °F 76% 29.64 in 10.0 mi NW 8.1 mph - N/A   Overcast
4:47 AM 42.8 °F 37.0 °F 35.6 °F 76% 29.65 in 10.0 mi NW 10.4 mph - N/A   Overcast
5:07 AM 41.0 °F 36.4 °F 35.6 °F 81% 29.65 in 10.0 mi NW 6.9 mph - N/A   Mostly Cloudy
5:27 AM 41.0 °F 37.1 °F 37.4 °F 87% 29.65 in 10.0 mi NW 5.8 mph - N/A   Mostly Cloudy
5:47 AM 41.0 °F 37.1 °F 37.4 °F 87% 29.66 in 7.0 mi WNW 5.8 mph - N/A   Overcast
6:08 AM 41.0 °F - 37.4 °F 87% 29.66 in 7.0 mi Calm Calm - N/A   Overcast
6:28 AM 41.0 °F 38.0 °F 37.4 °F 87% 29.67 in 7.0 mi WNW 4.6 mph - N/A   Overcast
7:08 AM 39.2 °F 31.2 °F 35.6 °F 87% 29.68 in 10.0 mi WNW 13.8 mph 17.3 mph N/A   Overcast
7:28 AM 39.2 °F 32.5 °F 33.8 °F 81% 29.68 in 10.0 mi WNW 10.4 mph - N/A   Overcast
7:48 AM 39.2 °F 34.2 °F 33.8 °F 81% 29.69 in 10.0 mi West 6.9 mph - N/A   Overcast
8:08 AM 41.0 °F - 33.8 °F 76% 29.69 in 10.0 mi Calm Calm - N/A   Scattered Clouds
8:28 AM 41.0 °F - 32.0 °F 70% 29.68 in 10.0 mi Calm Calm - N/A   Clear
8:48 AM 41.0 °F - 32.0 °F 70% 29.69 in 10.0 mi Calm Calm - N/A   Clear
9:08 AM 41.0 °F - 32.0 °F 70% 29.68 in 10.0 mi Calm Calm - N/A   Clear
9:28 AM 42.8 °F 41.1 °F 32.0 °F 66% 29.68 in 10.0 mi West 3.5 mph - N/A   Clear
9:48 AM 42.8 °F - 32.0 °F 66% 29.68 in 10.0 mi Calm Calm - N/A   Clear
10:08 AM 42.8 °F 40.1 °F 32.0 °F 66% 29.68 in 10.0 mi West 4.6 mph - N/A   Clear
10:28 AM 42.8 °F 39.3 °F 32.0 °F 66% 29.67 in 10.0 mi WNW 5.8 mph - N/A   Clear
10:48 AM 44.6 °F 41.4 °F 28.4 °F 53% 29.67 in 10.0 mi West 5.8 mph - N/A   Clear
11:08 AM 44.6 °F 42.2 °F 28.4 °F 53% 29.67 in 10.0 mi West 4.6 mph - N/A   Scattered Clouds
11:28 AM 44.6 °F 40.2 °F 28.4 °F 53% 29.66 in 10.0 mi WNW 8.1 mph - N/A   Clear
11:48 AM 46.4 °F 43.5 °F 28.4 °F 50% 29.66 in 10.0 mi WNW 5.8 mph - N/A   Clear
12:08 PM 46.4 °F 42.9 °F 26.6 °F 46% 29.65 in 10.0 mi NW 6.9 mph - N/A   Scattered Clouds
12:28 PM 46.4 °F 41.9 °F 26.6 °F 46% 29.64 in 10.0 mi WNW 9.2 mph - N/A   Clear
12:48 PM 46.4 °F 40.7 °F 23.0 °F 40% 29.64 in 10.0 mi WNW 12.7 mph 17.3 mph N/A   Clear
1:08 PM 46.4 °F 40.4 °F 26.6 °F 46% 29.64 in 10.0 mi WNW 13.8 mph - N/A   Scattered Clouds
1:28 PM 44.6 °F 38.1 °F 24.8 °F 46% 29.63 in 10.0 mi WNW 13.8 mph 19.6 mph N/A   Scattered Clouds
1:48 PM 44.6 °F 37.8 °F 24.8 °F 46% 29.63 in 10.0 mi WNW 15.0 mph 23.0 mph N/A   Clear
2:08 PM 44.6 °F 37.8 °F 26.6 °F 49% 29.63 in 10.0 mi WNW 15.0 mph 20.7 mph N/A   Clear
2:28 PM 44.6 °F 37.2 °F 26.6 °F 49% 29.64 in 10.0 mi WNW 17.3 mph 20.7 mph N/A   Clear
3:09 PM 46.4 °F 40.1 °F 30.2 °F 53% 29.64 in 10.0 mi WNW 15.0 mph 18.4 mph N/A   Clear
4:09 PM 44.6 °F 39.7 °F 32.0 °F 61% 29.64 in 10.0 mi West 9.2 mph - N/A   Scattered Clouds
4:29 PM 44.6 °F 39.7 °F 30.2 °F 57% 29.65 in 10.0 mi WNW 9.2 mph - N/A   Scattered Clouds
4:49 PM 42.8 °F 37.5 °F 30.2 °F 61% 29.65 in 10.0 mi West 9.2 mph - N/A   Scattered Clouds
5:09 PM 42.8 °F 37.5 °F 30.2 °F 61% 29.65 in 10.0 mi West 9.2 mph 17.3 mph N/A   Mostly Cloudy
5:29 PM 42.8 °F 37.5 °F 30.2 °F 61% 29.66 in 10.0 mi WNW 9.2 mph - N/A   Scattered Clouds
5:49 PM 42.8 °F 37.5 °F 32.0 °F 66% 29.66 in 10.0 mi West 9.2 mph - N/A   Scattered Clouds
6:09 PM 42.8 °F 38.0 °F 30.2 °F 61% 29.67 in 10.0 mi West 8.1 mph - N/A   Mostly Cloudy
6:29 PM 42.8 °F 37.5 °F 30.2 °F 61% 29.68 in 10.0 mi West 9.2 mph - N/A   Overcast
6:49 PM 42.8 °F 37.0 °F 32.0 °F 66% 29.69 in 10.0 mi West 10.4 mph - N/A   Mostly Cloudy
7:09 PM 42.8 °F 34.8 °F 28.4 °F 57% 29.70 in 10.0 mi West 17.3 mph - N/A   Mostly Cloudy
7:29 PM 42.8 °F 36.2 °F 30.2 °F 61% 29.71 in 10.0 mi WNW 12.7 mph 19.6 mph N/A   Scattered Clouds
7:49 PM 41.0 °F 33.5 °F 28.4 °F 61% 29.71 in 10.0 mi WNW 13.8 mph - N/A   Mostly Cloudy
8:09 PM 41.0 °F 34.7 °F 30.2 °F 65% 29.71 in 10.0 mi West 10.4 mph - N/A   Overcast
8:29 PM 41.0 °F 34.7 °F 30.2 °F 65% 29.72 in 10.0 mi WNW 10.4 mph - N/A   Mostly Cloudy
8:49 PM 41.0 °F 35.8 °F 30.2 °F 65% 29.73 in 10.0 mi West 8.1 mph - N/A   Scattered Clouds
9:09 PM 41.0 °F 35.8 °F 30.2 °F 65% 29.73 in 10.0 mi West 8.1 mph - N/A   Scattered Clouds
9:29 PM 41.0 °F 35.2 °F 30.2 °F 65% 29.73 in 10.0 mi West 9.2 mph - N/A   Scattered Clouds
10:09 PM 41.0 °F 34.7 °F 30.2 °F 65% 29.72 in 10.0 mi West 10.4 mph - N/A   Clear
10:29 PM 41.0 °F 34.7 °F 30.2 °F 65% 29.72 in 10.0 mi WNW 10.4 mph - N/A   Scattered Clouds
10:49 PM 41.0 °F 34.7 °F 30.2 °F 65% 29.71 in 10.0 mi WNW 10.4 mph - N/A   Mostly Cloudy
11:09 PM 41.0 °F 35.2 °F 30.2 °F 65% 29.71 in 10.0 mi West 9.2 mph - N/A   Mostly Cloudy
11:30 PM 41.0 °F 35.8 °F 30.2 °F 65% 29.71 in 10.0 mi West 8.1 mph - N/A   Mostly Cloudy
11:50 PM 41.0 °F 34.7 °F 30.2 °F 65% 29.71 in 10.0 mi West 10.4 mph - N/A   Mostly Cloudy